Showing default

OPTICUBE 04, 41851

Orbit data source: Space-Track

OPTICUBE 04, 41851 is an American payload satellite in SSO that was launched on Fri, 11 Nov 2016 UTC via an ATLAS V 401 launch vehicle from the Air Force Western Test Range (AFWTR). Payload-class satellites include a variety of spacecraft equipped with specific instruments for various scientific and technological missions. These include communications satellites like Starlink; space stations such as the ISS; scientific satellites like the Hubble; Earth observation satellites from companies like Planet Labs, Umbra, and HawkEye 360; GPS; miniature CubeSats for education and research; and military/defense satellites.

Loading next visibility...
Identifier
41851, 2016-067D
Orbit
SSO
Country
Flag of USUS
Related business
Manufacturer
Cal Poly
Mission
Operational Defense Calibration
Bus & Motor
CUBESAT 2U, Unknown motor
Mass
4 kg wet, 4 kg dry
Launch date (UTC)
2016-11-11 (10 years ago)
Launch vehicle
ATLAS V 401
Launch site
Air Force Western Test Range (AFWTR)
Object type
Payload
Rocket body
Debris
Shape & HBR
Box, 0.1 m
Radar Cross Section
0.035 m², Medium (>0.1 m² and < 1m²)

Expand to show TLE details & history
Last TLE update: 2 days ago

TLE from 2 days ago
0 OPTICUBE 04
1 41851U 16067D   26171.32696426  .00001872  00000-0  12036-3 0  9997
2 41851  98.0696  23.7745 0016961 105.8379 254.4720 15.09671004525642
Epoch: 2026-06-20T07:50Z
TLE epoch observation values (Epoch: 2026-06-20T07:50:49.712Z)
Latitude
0.00002°
Longitude
-2.47582°
Altitude
543.42 km
Speed
7.589 km/s
True Right ascension
01h 35m 05s
True Declination
0° 00' 00"
Sunlit
Object was in daylight at epoch
Visualization orbit readout
Latitude
Unknown
Longitude
Unknown
Altitude
Unknown
Speed
Unknown
Apparent Right ascension
Unknown
Apparent Declination
Unknown
Sunlit
N/A
Visualization observer readout
Local Sidereal Time
21:43:03
Azimuth
Unknown
Elevation
Unknown
Doppler factor
Unknown
Orbital elements
Apogee altitude
545.938 km
Perigee altitude
522.49 km
Semi-major axis
6,912.351 km
Eccentricity
0.0017
Inclination
98.0696°
RAAN
23.7745°
Arg. of periapsis
105.8379°
True anomaly
254.28484°
Mean anomaly
254.472°
Eccentric anomaly
254.37841°
Mean motion
3.77663 °/min
Orbital period
95.32 mins
BSTAR
0.00012036
Loading maneuver chart data...
Computing Atmospheric mass density...
Loading historical data...
Loading historical data...
Loading historical data...
Loading historical data...
Loading historical data...
Loading historical data...
Loading historical data...

Documentation

Showing up to 5 results
|